User: anonymous   Login
Location: Unspecified
(0.0000°N, 0.0000°E)
Time: 09:05:22
(UTC+00:00)
Language:

Lituanica SAT-1 - Orbit

View from above orbital plane
View from above orbital plane
View from above satellite
View from above satellite

Ground track
Ground track

The orbit data is extracted from the following two-line orbital elements,

1 39569U 98067EN  14209.21574668  .13638857  12502-4  49874-3 0  9997
2 39569 051.6122 230.4807 0008961 271.6610 088.7082 16.43574288 23581
Epoch (UTC): 28 July 2014 05:10:40
Eccentricity: 0.0008961
inclination: 51.6122°
perigee height: 150 km
apogee height: 162 km
right ascension of ascending node: 230.4807°
argument of perigee: 271.6610°
revolutions per day: 16.43574288
mean anomaly at epoch: 88.7082°
orbit number at epoch: 2358

The dashed part of the orbit path shows where the satellite is in the earth's shadow,  

DLR